FW8892 Weather Reports


Display with metric or nautical units.
time (UTC)temp
F
wind
direction
speed
MPH
gust
MPH
rain 1hr
in
rain 24hr
in
rain mn
in
humidity
%
barometer
mb
20260504234543 75 205 4.0 15.0 0.00 0.00 0.00 48 1010.0
20260504234030 76 200 5.0 15.0 0.00 0.00 0.00 47 1010.0
20260504233530 76 234 7.0 18.0 0.00 0.00 0.00 46 1009.9
20260504233041 76 207 5.0 18.0 0.00 0.00 0.00 46 1010.0
20260504232530 76 227 4.0 14.0 0.00 0.00 0.00 45 1010.0
20260504232029 77 251 4.0 14.0 0.00 0.00 0.00 45 1010.2
20260504231546 77 249 4.0 11.0 0.00 0.00 0.00 47 1010.2
20260504231029 77 216 3.0 11.0 0.00 0.00 0.00 46 1010.2
20260504230530 77 215 5.0 11.0 0.00 0.00 0.00 45 1010.1
20260504225530 78 224 2.0 11.0 0.00 0.00 0.00 45 1010.2
20260504225030 78 221 3.0 11.0 0.00 0.00 0.00 44 1010.2
20260504224545 78 355 4.0 11.0 0.00 0.00 0.00 45 1010.3
20260504224029 78 262 3.0 12.0 0.00 0.00 0.00 46 1010.2
20260504223529 78 228 5.0 12.0 0.00 0.00 0.00 44 1010.2
20260504223042 78 277 3.0 15.0 0.00 0.00 0.00 44 1010.3
20260504222529 78 284 5.0 15.0 0.00 0.00 0.00 43 1010.3
20260504222029 78 314 4.0 11.0 0.00 0.00 0.00 43 1010.4
20260504221550 79 220 5.0 15.0 0.00 0.00 0.00 43 1010.3
20260504221031 79 219 3.0 15.0 0.00 0.00 0.00 45 1010.3
20260504220532 79 232 6.0 15.0 0.00 0.00 0.00 45 1010.3
20260504220048 79 252 6.0 14.0 0.00 0.00 0.00 45 1010.3
20260504215530 79 290 7.0 14.0 0.00 0.00 0.00 45 1010.2
20260504215029 79 184 6.0 15.0 0.00 0.00 0.00 46 1010.2
20260504214547 79 213 7.0 18.0 0.00 0.00 0.00 43 1010.2
20260504214029 79 175 8.0 18.0 0.00 0.00 0.00 44 1010.2
20260504213529 79 226 3.0 25.0 0.00 0.00 0.00 44 1010.1
20260504213045 80 213 8.0 25.0 0.00 0.00 0.00 42 1010.1
20260504212529 80 276 4.0 18.0 0.00 0.00 0.00 43 1010.0
20260504212031 81 135 7.0 18.0 0.00 0.00 0.00 42 1010.0
20260504211550 81 316 5.0 14.0 0.00 0.00 0.00 41 1010.1
20260504211030 81 219 6.0 15.0 0.00 0.00 0.00 44 1010.0
20260504210529 80 218 6.0 21.0 0.00 0.00 0.00 42 1010.1
20260504210053 80 209 6.0 21.0 0.00 0.00 0.00 41 1010.1
20260504205530 80 199 6.0 16.0 0.00 0.00 0.00 41 1010.4
20260504205029 80 275 5.0 16.0 0.00 0.00 0.00 43 1010.2
20260504204548 80 211 7.0 16.0 0.00 0.00 0.00 42 1010.3
20260504204029 80 161 8.0 20.0 0.00 0.00 0.00 43 1010.2
20260504203529 80 178 5.0 20.0 0.00 0.00 0.00 44 1010.2
20260504203054 80 261 8.0 22.0 0.00 0.00 0.00 42 1010.3
20260504202529 80 246 10.0 22.0 0.00 0.00 0.00 42 1010.6
20260504202030 80 221 8.0 22.0 0.00 0.00 0.00 43 1010.5
20260504201541 80 180 6.0 20.0 0.00 0.00 0.00 46 1010.5
20260504201029 81 230 7.0 20.0 0.00 0.00 0.00 44 1010.7
20260504200529 81 217 7.0 16.0 0.00 0.00 0.00 44 1010.5
20260504200050 81 177 9.0 16.0 0.00 0.00 0.00 45 1010.8
20260504195528 82 208 6.0 15.0 0.00 0.00 0.00 46 1010.9
20260504195029 81 202 3.0 20.0 0.00 0.00 0.00 46 1010.9
20260504194539 81 183 5.0 20.0 0.00 0.00 0.00 45 1011.0
20260504194030 81 240 8.0 17.0 0.00 0.00 0.00 45 1011.1
20260504193528 81 236 4.0 19.0 0.00 0.00 0.00 48 1011.1
20260504193047 81 179 7.0 19.0 0.00 0.00 0.00 47 1011.1
20260504192529 81 175 5.0 15.0 0.00 0.00 0.00 49 1011.1
20260504192029 81 202 4.0 15.0 0.00 0.00 0.00 50 1011.3
20260504191546 81 257 3.0 15.0 0.00 0.00 0.00 48 1011.3
20260504191030 81 203 6.0 13.0 0.00 0.00 0.00 45 1011.3
20260504190527 81 217 6.0 13.0 0.00 0.00 0.00 49 1011.5
20260504190041 81 166 7.0 15.0 0.00 0.00 0.00 47 1011.6
20260504185529 80 159 5.0 19.0 0.00 0.00 0.00 48 1011.7
20260504185031 81 207 7.0 19.0 0.00 0.00 0.00 46 1011.6
20260504184540 80 221 4.0 12.0 0.00 0.00 0.00 48 1011.6
20260504184029 80 207 4.0 14.0 0.00 0.00 0.00 50 1011.8
20260504183530 80 239 4.0 14.0 0.00 0.00 0.00 52 1011.7
20260504183048 80 241 4.0 14.0 0.00 0.00 0.00 47 1011.7
20260504182529 80 266 6.0 18.0 0.00 0.00 0.00 48 1011.9
20260504182027 81 262 6.0 18.0 0.00 0.00 0.00 47 1011.8
20260504181554 80 188 4.0 18.0 0.00 0.00 0.00 50 1011.9
20260504181030 80 322 5.0 17.0 0.00 0.00 0.00 48 1011.9
20260504180528 80 209 6.0 17.0 0.00 0.00 0.00 47 1011.9
20260504180046 80 206 3.0 11.0 0.00 0.00 0.00 48 1012.0
20260504175527 80 289 4.0 17.0 0.00 0.00 0.00 50 1012.0
20260504175030 80 208 6.0 17.0 0.00 0.00 0.00 47 1012.0
20260504174541 80 211 4.0 11.0 0.00 0.00 0.00 50 1012.0
20260504174031 80 184 4.0 15.0 0.00 0.00 0.00 51 1012.0
20260504173527 79 293 4.0 16.0 0.00 0.00 0.00 49 1011.9
20260504173049 79 230 6.0 18.0 0.00 0.00 0.00 49 1012.0
20260504172533 79 283 5.0 18.0 0.00 0.00 0.00 50 1012.0
20260504172029 79 171 5.0 14.0 0.00 0.00 0.00 52 1012.2
20260504171546 79 195 4.0 9.0 0.00 0.00 0.00 51 1012.2
20260504171030 79 216 4.0 10.0 0.00 0.00 0.00 50 1012.1
20260504170527 78 238 2.0 11.0 0.00 0.00 0.00 51 1012.4
20260504151031 73 211 5.0 13.0 0.00 0.00 0.00 57 1013.5
20260504150531 73 202 2.0 10.0 0.00 0.00 0.00 59 1013.6
20260504141030 68 173 5.0 13.0 0.00 0.00 0.00 63 1013.8
20260504140530 67 214 5.0 13.0 0.00 0.00 0.00 64 1013.8
20260504130530 63 202 5.0 10.0 0.00 0.00 0.00 64 1013.9
20260504110529 55 194 3.0 9.0 0.00 0.00 0.00 71 1013.4
20260504100532 54 186 3.0 8.0 0.00 0.00 0.00 72 1013.1
20260504081556 52 142 3.0 7.0 0.00 0.00 0.00 74 1013.5
20260504081030 52 186 3.0 7.0 0.00 0.00 0.00 74 1013.5
20260504080529 52 184 2.0 8.0 0.00 0.00 0.00 74 1013.6
20260504050530 50 178 0.0 4.0 0.00 0.00 0.00 74 1015.1
20260504045529 51 0 0.0 2.0 0.00 0.00 0.00 72 1015.2
20260504045029 51 0 0.0 2.0 0.00 0.00 0.00 72 1015.3
20260504044546 52 0 0.0 2.0 0.00 0.00 0.00 71 1015.3
20260504044029 52 0 0.0 2.0 0.00 0.00 0.00 69 1015.2
20260504043529 53 0 0.0 1.0 0.00 0.00 0.00 69 1015.1
20260504043051 53 0 0.0 1.0 0.00 0.00 0.00 68 1015.2
20260504042529 54 0 0.0 0.0 0.00 0.00 0.00 68 1015.2
20260504042030 54 0 0.0 2.0 0.00 0.00 0.00 65 1015.2
20260504041543 55 0 0.0 2.0 0.00 0.00 0.00 65 1015.1
20260504041029 55 0 0.0 4.0 0.00 0.00 0.00 64 1015.0
20260504040526 55 0 1.0 5.0 0.00 0.00 0.00 63 1014.9
20260504040049 55 182 1.0 7.0 0.00 0.00 0.00 63 1014.8
20260504035530 55 193 1.0 7.0 0.00 0.00 0.00 63 1014.9
20260504035028 55 217 1.0 11.0 0.00 0.00 0.00 63 1014.8
20260504034547 55 203 3.0 15.0 0.00 0.00 0.00 63 1014.8
20260504034025 55 155 4.0 15.0 0.00 0.00 0.00 63 1014.8
20260504033528 55 202 3.0 11.0 0.00 0.00 0.00 64 1014.9
20260504033049 55 203 4.0 11.0 0.00 0.00 0.00 65 1014.7
20260504032529 54 183 4.0 10.0 0.00 0.00 0.00 66 1014.8
20260504032028 54 222 4.0 10.0 0.00 0.00 0.00 67 1014.9
20260504031548 53 190 3.0 10.0 0.00 0.00 0.00 69 1015.1
20260504031026 52 123 4.0 9.0 0.00 0.00 0.00 70 1015.1
20260504030529 51 173 3.0 7.0 0.00 0.00 0.00 72 1015.2
20260504030045 50 180 2.0 6.0 0.00 0.00 0.00 73 1015.1
20260504025526 50 157 1.0 4.0 0.00 0.00 0.00 74 1015.1
20260504025030 50 168 0.0 2.0 0.00 0.00 0.00 74 1015.3
20260504024554 50 0 0.0 1.0 0.00 0.00 0.00 74 1015.3
20260504024026 50 0 0.0 2.0 0.00 0.00 0.00 74 1015.3
20260504023529 51 0 0.0 2.0 0.00 0.00 0.00 73 1015.4
20260504023052 51 203 0.0 1.0 0.00 0.00 0.00 73 1015.4
20260504022529 51 0 0.0 0.0 0.00 0.00 0.00 72 1015.4
20260504022029 52 0 0.0 0.0 0.00 0.00 0.00 72 1015.3
20260504021547 52 0 0.0 0.0 0.00 0.00 0.00 71 1015.3
20260504021028 53 0 0.0 0.0 0.00 0.00 0.00 70 1015.5
20260504020528 53 0 0.0 0.0 0.00 0.00 0.00 69 1015.4
20260504020047 54 0 0.0 0.0 0.00 0.00 0.00 68 1015.4
20260504015528 54 0 0.0 0.0 0.00 0.00 0.00 67 1015.5
20260504015030 55 0 0.0 0.0 0.00 0.00 0.00 65 1015.4
20260504014547 56 0 0.0 0.0 0.00 0.00 0.00 65 1015.5
20260504014030 56 0 0.0 1.0 0.00 0.00 0.00 63 1015.4
20260504013529 57 0 0.0 2.0 0.00 0.00 0.00 60 1015.2
20260504013054 57 0 0.0 2.0 0.00 0.00 0.00 58 1015.0
20260504012526 58 203 0.0 1.0 0.00 0.00 0.00 57 1015.1
20260504012028 58 0 0.0 2.0 0.00 0.00 0.00 56 1015.0
20260504011541 59 213 0.0 3.0 0.00 0.00 0.00 55 1014.9
20260504011028 59 0 0.0 3.0 0.00 0.00 0.00 55 1015.0
20260504010528 60 183 1.0 5.0 0.00 0.00 0.00 54 1014.9
20260504010040 60 181 1.0 5.0 0.00 0.00 0.00 53 1014.8
20260504005529 60 0 1.0 6.0 0.00 0.00 0.00 53 1014.8
20260504005029 61 186 3.0 6.0 0.00 0.00 0.00 52 1014.8
20260504004546 61 203 1.0 5.0 0.00 0.00 0.00 52 1014.8
20260504004029 61 178 1.0 5.0 0.00 0.00 0.00 51 1014.9
20260504003529 62 222 2.0 7.0 0.00 0.00 0.00 50 1015.1
20260504003046 62 221 2.0 7.0 0.00 0.00 0.00 50 1015.0
20260504002526 62 205 3.0 7.0 0.00 0.00 0.00 50 1014.9
20260504002027 63 177 3.0 7.0 0.00 0.00 0.00 49 1014.9
20260504001549 63 193 2.0 8.0 0.00 0.00 0.00 49 1015.2
20260504001027 63 198 2.0 10.0 0.00 0.00 0.00 48 1015.2
20260504000530 63 211 3.0 10.0 0.00 0.00 0.00 48 1015.1
20260504000113 64 214 2.0 10.0 0.00 0.00 0.00 47 1015.2
20260503235525 64 196 3.0 12.0 0.00 0.00 0.00 47 1015.1
20260503235026 64 192 4.0 12.0 0.00 0.00 0.00 47 1015.2